AirNav   Air Wisconsin Up To $57,000 Bonus
 
 419 users online  

SN34 Rucker Airport
Clearwater, Kansas, USA

GOING TO CLEARWATER?


FAA INFORMATION EFFECTIVE 03 DECEMBER 2020

Location

FAA Identifier: SN34
Lat/Long: 37-34-30.0580N 097-29-31.1690W
37-34.500967N 097-29.519483W
37.5750161,-97.4919914
(estimated)
Elevation: 1300 ft. / 396 m (estimated)
Variation: 07E (1985)
From city: 4 miles N of CLEARWATER, KS
Time zone: UTC -6 (UTC -5 during Daylight Saving Time)
Zip code: 67026

Airport Operations

Airport use: Private use. Permission required prior to landing
Activation date: 04/1971
Control tower: no
ARTCC: KANSAS CITY CENTER
FSS: WICHITA FLIGHT SERVICE STATION
Attendance: UNATNDD
Wind indicator: no
Segmented circle: no

Airport Communications

WX ASOS at ICT (5 nm NE): PHONE 316-945-8022
WX AWOS-3PT at BEC (15 nm NE): 119.45 (316-515-7116)
WX AWOS-3 at EGT (16 nm S): 118.875 (620-326-2470)
WX ASOS at AAO (17 nm NE): 134.025 (316-636-2541)

Nearby radio navigation aids

VOR radial/distance  VOR name  Freq  Var
ICTr150/11.1WICHITA VORTAC113.8007E
HUTr136/32.9HUTCHINSON VOR/DME116.8004E

 
NDB name  Hdg/Dist  Freq  Var  ID
PICHE260/1.733204EIC .. -.-.
NEWTON193/31.128106EEWK . .-- -.-

Airport Services

Runway Information

Runway 17/35

Dimensions: 2600 x 100 ft. / 792 x 30 m
Surface: turf
RUNWAY 17  RUNWAY 35
Traffic pattern: rightleft

Airport Ownership and Management from official FAA records

Ownership: Privately-owned
Owner: RUCKER FIELD ASSOCIATION
13149 WEST 63RD ST SOUTH
CLEARWATER, KS 67026
Phone (620) 545-7070
Manager: AARON TOBIAS
13149 WEST 63RD ST SOUTH
CLEARWATER, KS 67026
Phone (620) 545-7070

Airport Operational Statistics

Aircraft based on the field: 6
Single engine airplanes: 6
    

Additional Remarks

RY 35 272 FT RADIO TWR 1100 FT W OF NORTH END OF RY.
CTC ICT TWR FOR ADZYS, DUE TO CLOSE PROXIMITY TO CLASS C SFC ASP.
RWY 17- RP ONLY
FOR CD CTC WICHITA APCH AT 316-350-1520.

Instrument Procedures

There are no published instrument procedures at SN34.

Some nearby airports with instrument procedures:

KICT - Wichita Dwight D Eisenhower National Airport (5 nm NE)
KIAB - Mc Connell Air Force Base (11 nm E)
KCEA - Cessna Aircraft Field Airport (12 nm E)
KBEC - Beech Factory Airport (15 nm NE)
KEGT - Wellington Municipal Airport (16 nm S)
KAAO - Colonel James Jabara Airport (17 nm NE)
 
Loc | Ops | Rwys | IFR | FBO | Links
Com | Nav | Svcs | Stats | Notes
Area around SN34 (Rucker Airport)
 
Road maps at: MapQuest Bing Google
 
Aerial photo
No photo
 
Sectional chart

 
Airport distance calculator
Flying to Rucker Airport? Find the distance to fly.

From to SN34

Sunrise and sunset
Times for 05-Dec-2020
 Local
(UTC-6)
 Zulu
(UTC)
Morning civil twilight07:0313:03
Sunrise07:3213:32
Sunset17:1023:10
Evening civil twilight17:3923:39

Current date and time
Zulu (UTC)  05-Dec-2020 08:05:08
Local (UTC-6)  05-Dec-2020 02:05:08
 
METAR
KICT 
5nm NE 
050753Z 28004KT 10SM CLR M01/M03 A3016 RMK AO2 SLP220 T10111028
KIAB 
11nm E 
050756Z AUTO 23003KT 10SM CLR M01/M03 A3016 RMK AO2 SLP223 T10111035 $
KBEC 
15nm NE 
050755Z AUTO 26004KT 10SM CLR 01/M01 A3016 RMK AO2 T00101011
KAAO 
17nm NE 
050754Z AUTO 26008KT 10SM CLR 03/M02 A3016 RMK AO2 SLP220 T00331017
TAF
KICT 
5nm NE 
050521Z 0506/0606 28003KT P6SM FEW250 FM051100 33007KT P6SM FEW250 FM051800 35012G18KT P6SM SKC FM060000 34005KT P6SM SKC
KIAB 
11nm E 
050200Z 0502/0608 VRB06KT 9999 SKC QNH3010INS BECMG 0517/0518 34012G18KT 9999 SKC QNH3015INS BECMG 0522/0523 34006KT 9999 SKC QNH3015INS TX08/0520Z TNM02/0511Z
NOTAMs
Click for the latest NOTAMs
NOTAMs are issued by the DoD/FAA and will open in a separate window not controlled by AirNav.

 

 
 

Would you like to see your business listed on this page?

 If your business provides an interesting product or service to pilots, flight crews, aircraft, or users of the Rucker Airport, you should consider listing it here.  To start the listing process, click on the button below
 
Add a business
 

Other Pages about Rucker Airport

Update a link
 
Copyright © AirNav, LLC. All rights reserved. Privacy Policy  Contact